Overview Statistics Trail Chart Weather Telemetry Raw packets
 

This is the latest recevied weather packets stored in our database for station/object WA1NHP. If no packets are shown the sender has not sent any weather packets the latest 10 day(s).

<< 28 29 30 31 32 33 34 >>
Time Temp. Humidity Pressure Rain* Wind** Luminosity Snow
1788199444 22.22° C 68% 1023.9 hPa 0 mm - 329 W/m² -
1788198844 22.22° C 68% 1023.9 hPa 0 mm - 420 W/m² -
1788198244 22.22° C 70% 1023.9 hPa 0 mm - 390 W/m² -
1788197644 22.22° C 67% 1023.9 hPa 0 mm - 383 W/m² -
1788197043 22.22° C 68% 1023.9 hPa 0 mm - 640 W/m² -
1788196444 22.22° C 68% 1023.9 hPa 0 mm - 404 W/m² -
1788195844 22.22° C 64% 1023.9 hPa 0 mm - 666 W/m² -
1788195244 22.22° C 70% 1023.9 hPa 0 mm - 508 W/m² -
1788194644 22.78° C 65% 1023.9 hPa 0 mm - 923 W/m² -
1788194044 21.67° C 63% 1023.9 hPa 0 mm - 656 W/m² -
1788193444 21.67° C 60% 1023.9 hPa 0 mm - 682 W/m² -
1788192844 21.67° C 61% 1023.9 hPa 0 mm - 668 W/m² -
1788192243 21.11° C 62% 1023.9 hPa 0 mm - 605 W/m² -
1788191643 21.67° C 63% 1023.9 hPa 0 mm - 649 W/m² -
1788191044 21.67° C 68% 1023.9 hPa 0 mm - 457 W/m² -
1788190444 21.67° C 64% 1023.9 hPa 0 mm - 738 W/m² -
1788189844 21.67° C 62% 1023.9 hPa 0 mm - 780 W/m² -
1788189244 21.67° C 70% 1023.9 hPa 0 mm - 842 W/m² -
1788188644 21.11° C 67% 1023.9 hPa 0 mm - 860 W/m² -
1788188043 21.11° C 65% 1023.9 hPa 0 mm - 828 W/m² -
1788187444 20° C 69% 1023.9 hPa 0 mm - 814 W/m² -
1788186843 20° C 68% 1023.9 hPa 0 mm - 788 W/m² -
1788186245 19.44° C 73% 1023.9 hPa 0 mm - 768 W/m² -
1788185644 19.44° C 72% 1023.9 hPa 0 mm - 137 W/m² -
1788185043 19.44° C 75% 1023.9 hPa 0 mm - 111 W/m² -

* Rain latest hour (hover to see other rain measurements)
** Current wind speed in m/s (hover to see current wind gust speed)